Simultaneous Nadir Overpasses (SNOs) Predictions

Prediction of SNOs between GOES-16 and NOAA-20 Satellite Orbit:

Table of predicted SNOs for the next 14.0 days since TLE Epoch: 11/26/2022
Index Date Time (GOES-16) GOES-16 Lat,Lon NOAA-20 Lat,Lon Distance(km) Time Diff (sec)
1 11/26/2022 18:16:30 -0.01, -75.20 0.56, -72.67 288.51 80
2 11/28/2022 06:35:36 0.00, -75.20 0.64, -77.93 311.49 80
3 11/29/2022 06:19:31 0.01, -75.21 -0.37, -73.40 206.04 80
4 11/30/2022 18:38:46 0.00, -75.23 -0.80, -78.70 396.03 80
5 12/01/2022 18:22:41 -0.00, -75.24 0.21, -74.16 122.22 80
6 12/03/2022 06:41:48 -0.00, -75.26 0.93, -79.43 475.85 80
7 12/04/2022 06:25:43 0.00, -75.27 -0.08, -74.90 42.77 80
8 12/06/2022 18:26:12 -0.00, -75.32 -0.06, -75.67 38.97 80
9 12/07/2022 18:10:07 -0.01, -75.34 0.96, -71.13 480.14 80
10 12/09/2022 06:31:53 0.01, -75.37 0.24, -76.39 116.81 80
